Regional Weather Roundup
Issued by NWS Nashville, TN

Home | Current Version | Previous Version | Text Only | Print | Product List | Glossary On
Versions: 1 2 3 4 5 6 7 8 9 10 11 12 13 14 15 16 17 18 19 20 21 22 23 24 25 26 27 28
000
ASUS44 KOHX 191210
RWROHX
MIDDLE TENNESSEE HOURLY WEATHER ROUNDUP
NATIONAL WEATHER SERVICE NASHVILLE TN
600 AM CST MON FEB 19 2018

NOTE: "FAIR" INDICATES FEW OR NO CLOUDS BELOW 12,000 FEET WITH
NO SIGNIFICANT WEATHER AND/OR OBSTRUCTIONS TO VISIBILITY.

* THESE REPORTS ARE NOT UNDER NWS QUALITY CONTROL AND MAY NOT
  REPORT WEATHER SUCH AS PRECIPITATION AND FOG.


TNZ005>011-023>034-057-059-062>066-078-080-191300
...NORTHERN MIDDLE TENNESSEE...

CITY           SKY/WX    TMP DP  RH WIND       PRES   REMARKS
CLARKSVILLE    MOCLDY    57  53  86 S7        30.12F
CROSSVILLE     CLOUDY    56  55  97 VRB7      30.26R FOG
GALLATIN       CLOUDY    59  55  88 CALM      30.19S
NASHVILLE      MOCLDY    58  55  90 S8        30.17F
PORTLAND       CLOUDY    59  57  94 S12       30.15R
SMYRNA         MOCLDY    56  55  97 S3        30.19S
SPARTA         CLOUDY    61  57  88 S9G16     30.21R
SPRINGFIELD    CLOUDY    59  57  94 S9        30.12F
WEST NASHVILLE CLOUDY    59  55  88 S5        30.14F
$$
TNZ056-058-060-061-075>077-079-093>097-191300
...SOUTHERN MIDDLE TENNESSEE...

CITY           SKY/WX    TMP DP  RH WIND       PRES   REMARKS
COLUMBIA       CLEAR     59  59 100 S10G16    30.16S
FAYETTEVILLE   MOCLDY    59  59 100 S16       30.20S
MCMINNVILLE    CLOUDY    63  59  88 VRB3      30.21S
PULASKI        CLOUDY    52  52 100 CALM      30.19S
SHELBYVILLE    CLEAR     59  57  94 S6        30.19S
TULLAHOMA      CLOUDY    59  57  94 SE6       30.20S
WINCHESTER     CLOUDY    61  57  88 S16       30.22S
$$


...KEY TO REMARKS...
VSB - VISIBILITY IN MILES
WCI - WIND CHILL INDEX
HX  - HEAT INDEX





USA.gov is the U.S. government's official web portal to all federal, state and local government web resources and services.